Weather History for Saranac Lake, NY

Change the Weather History Date:

Sunday, May 5, 2013

  Actual Average Record
Temperature  
Mean Temperature 54 °F 46 °F  
Max Temperature 78 °F 60 °F 85 °F (1955)
Min Temperature 30 °F 33 °F 19 °F (2005)
Degree Days  
Heating Degree Days 12    
Cooling Degree Days 0 0  
Month to date cooling degree days 0 0  
Year to date cooling degree days 0 0  
Growing Degree Days 4 (Base 50)    
Moisture  
Dew Point 33 °F    
Average Humidity 58    
Maximum Humidity 100    
Minimum Humidity 16    
Precipitation  
Precipitation 0.00 in 0.10 in 0.59 in (1986)
Month to date precipitation 0.00 0.48  
Year to date precipitation 5.26 9.39  
Sea Level Pressure  
Sea Level Pressure 30.18 in    
Wind  
Wind Speed 3 mph (ESE)    
Max Wind Speed 13 mph    
Max Gust Speed 15 mph    
Visibility 10 miles    
Events      
T = Trace of Precipitation, MM = Missing Value Source: NWS Daily Summary

Daily Weather History Graph

Daily Weather History Graph

Search for Another Location

Airport:

Trip Planner

Search our weather history database for the weather conditions in past years. The results will help you decide how hot, cold, wet, or windy it might be!

Date:

Astronomy

May. 05, 2013 Rise Set
Actual Time 5:41 AM EDT 8:06 PM EDT
Civil Twilight 5:09 AM EDT 8:38 PM EDT
Nautical Twilight 4:28 AM EDT 9:19 PM EDT
Astronomical Twilight 3:43 AM EDT 10:05 PM EDT
Moon 3:20 AM EDT (5/5) 3:54 PM EDT (5/5)
Length of Visible Light 15h 29m
Length of Day
14h 24m
Waning Crescent, 18% of the Moon is Illuminated
May 5
Waning Crescent
May 9
New
May 18
First Quarter
May 25
Full
May 31
Last Quarter

Hourly Weather History & Observations

Time (EDT) Temp. Windchill Dew Point Humidity Pressure Visibility Wind Dir Wind Speed Gust Speed Precip Events Conditions
12:51 AM 37.0 °F 34.5 °F 34.0 °F 89% 30.22 in 10.0 mi NE 3.5 mph - N/A   Partly Cloudy
1:51 AM 35.1 °F - 32.0 °F 89% 30.22 in 10.0 mi Calm Calm - N/A   Clear
2:51 AM 36.0 °F - 32.0 °F 86% 30.22 in 10.0 mi Calm Calm - N/A   Clear
3:51 AM 33.1 °F - 30.9 °F 92% 30.22 in 10.0 mi Calm Calm - N/A   Clear
4:51 AM 30.9 °F - 30.0 °F 96% 30.22 in 10.0 mi Calm Calm - N/A   Clear
5:51 AM 30.0 °F - 28.9 °F 96% 30.23 in 10.0 mi Calm Calm - N/A   Clear
6:51 AM 37.9 °F - 35.1 °F 89% 30.23 in 10.0 mi Calm Calm - N/A   Clear
7:51 AM 52.0 °F - 41.0 °F 66% 30.22 in 10.0 mi Calm Calm - N/A   Clear
8:51 AM 60.1 °F - 39.0 °F 46% 30.23 in 10.0 mi WSW 8.1 mph - N/A   Clear
9:51 AM 64.9 °F - 37.9 °F 37% 30.23 in 10.0 mi SW 6.9 mph - N/A   Clear
10:51 AM 69.1 °F - 37.0 °F 31% 30.22 in 10.0 mi WSW 6.9 mph - N/A   Clear
11:51 AM 71.1 °F - 32.0 °F 24% 30.20 in 10.0 mi South 5.8 mph - N/A   Clear
12:51 PM 72.0 °F - 30.0 °F 21% 30.18 in 10.0 mi North 3.5 mph - N/A   Clear
1:51 PM 75.0 °F - 28.9 °F 18% 30.17 in 10.0 mi Calm Calm - N/A   Clear
2:51 PM 75.0 °F - 28.9 °F 18% 30.15 in 10.0 mi ENE 6.9 mph - N/A   Clear
4:51 PM 77.0 °F - 28.9 °F 17% 30.12 in 10.0 mi SW 8.1 mph - N/A   Overcast
5:51 PM 75.0 °F - 34.0 °F 22% 30.11 in 10.0 mi NE 9.2 mph - N/A   Overcast
6:51 PM 73.0 °F - 34.0 °F 24% 30.11 in 10.0 mi ENE 5.8 mph - N/A   Mostly Cloudy
7:51 PM 69.1 °F - 33.1 °F 26% 30.10 in 10.0 mi East 6.9 mph - N/A   Clear
8:51 PM 57.0 °F - 35.1 °F 44% 30.12 in 10.0 mi Calm Calm - N/A   Clear
9:51 PM 51.1 °F - 37.0 °F 59% 30.15 in 10.0 mi Calm Calm - N/A   Clear
10:51 PM 45.0 °F - 36.0 °F 71% 30.15 in 10.0 mi Calm Calm - N/A   Clear
11:51 PM 43.0 °F - 34.0 °F 71% 30.16 in 10.0 mi Calm Calm - N/A   Clear